Hayward, WI

4:14 AM CST on November 20, 2017 (GMT -0600)
Sawyer County

Weather History for KHYR - June, 2012

Change the Weather History Date:

Thursday, June 7, 2012

  Actual Average Record
Temperature  
Mean Temperature 62 °F -  
Max Temperature 79 °F 73 °F 93 °F (2011)
Min Temperature 46 °F 40 °F 34 °F (1998)
Degree Days  
Heating Degree Days 2    
Growing Degree Days 12 (Base 50)    
Moisture  
Dew Point 53 °F    
Average Humidity 80    
Maximum Humidity 100    
Minimum Humidity 50    
Precipitation  
Precipitation 0.00 in - - ()
Sea Level Pressure  
Sea Level Pressure 30.09 in    
Wind  
Wind Speed 1 mph (SSW)    
Max Wind Speed 9 mph    
Max Gust Speed 17 mph    
Visibility 7 miles    
Events Fog    
Averages and records for this station are not official NWS values.
T = Trace of Precipitation, MM = Missing Value Source: NWS Daily Summary

Daily Weather History Graph

Daily Weather History Graph

Search for Another Location

Airport or City:

Trip Planner

Search our weather history database for the weather conditions in past years. The results will help you decide how hot, cold, wet, or windy it might be!

Date:

Astronomy

Jun. 07, 2012 Rise Set
Actual Time 5:15 AM CDT 8:54 PM CDT
Civil Twilight 4:37 AM CDT 9:32 PM CDT
Nautical Twilight 3:46 AM CDT 10:23 PM CDT
Astronomical Twilight 2:37 AM CDT 11:32 PM CDT
Moon 11:35 PM CDT (6/7) 8:54 AM CDT (6/7)
Length of Visible Light 16h 55m
Length of Day
15h 38m
Waning Gibbous, 86% of the Moon is Illuminated
Jun 7
Waning Gibbous
Jun 11
Last Quarter
Jun 19
New
Jun 26
First Quarter
Jul 3
Full

Hourly Weather History & Observations

Time (CDT) Temp. Dew Point Humidity Pressure Visibility Wind Dir Wind Speed Gust Speed Precip Events Conditions
12:53 AM 51.1 °F 48.9 °F 92% 30.11 in 9.0 mi Calm Calm - N/A   Clear
1:53 AM 51.1 °F 48.9 °F 92% 30.13 in 5.0 mi Calm Calm - N/A   Clear
2:06 AM 48.2 °F 48.2 °F 100% 30.11 in 1.0 mi Calm Calm - N/A   Clear
2:13 AM 48.2 °F 46.4 °F 93% 30.11 in 0.5 mi Calm Calm - N/A Fog Fog
2:31 AM 48.2 °F 48.2 °F 100% 30.12 in 1.2 mi Calm Calm - N/A   Partly Cloudy
2:36 AM 48.2 °F 46.4 °F 93% 30.12 in 3.0 mi Calm Calm - N/A   Partly Cloudy
2:53 AM 48.9 °F 46.9 °F 93% 30.12 in 5.0 mi Calm Calm - N/A   Clear
3:32 AM 46.4 °F 44.6 °F 93% 30.12 in 1.5 mi Calm Calm - N/A   Scattered Clouds
3:34 AM 46.4 °F 44.6 °F 93% 30.12 in 0.8 mi Calm Calm - N/A   Scattered Clouds
3:51 AM 48.2 °F 46.4 °F 93% 30.12 in 0.8 mi Calm Calm - N/A   Mostly Cloudy
3:53 AM 46.9 °F 46.0 °F 97% 30.13 in 1.0 mi Calm Calm - N/A   Overcast
4:00 AM 48.2 °F 46.4 °F 93% 30.12 in 1.8 mi Calm Calm - N/A   Overcast
4:07 AM 46.4 °F 46.4 °F 100% 30.12 in 2.5 mi Calm Calm - N/A   Mostly Cloudy
4:15 AM 46.4 °F 44.6 °F 93% 30.12 in 6.0 mi Calm Calm - N/A   Scattered Clouds
4:53 AM 46.9 °F 46.0 °F 97% 30.14 in 8.0 mi Calm Calm - N/A   Mostly Cloudy
5:53 AM 48.9 °F 48.0 °F 97% 30.14 in 8.0 mi Calm Calm - N/A   Scattered Clouds
6:53 AM 55.0 °F 53.1 °F 93% 30.13 in 9.0 mi Calm Calm - N/A   Mostly Cloudy
7:53 AM 57.9 °F 55.9 °F 93% 30.14 in 10.0 mi Calm Calm - N/A   Overcast
8:53 AM 66.0 °F 57.9 °F 75% 30.12 in 10.0 mi Variable 3.5 mph - N/A   Scattered Clouds
9:53 AM 71.1 °F 57.9 °F 63% 30.12 in 10.0 mi South 4.6 mph - N/A   Clear
10:53 AM 75.0 °F 55.9 °F 51% 30.11 in 10.0 mi Variable 4.6 mph - N/A   Scattered Clouds
11:53 AM 73.9 °F 57.0 °F 55% 30.11 in 10.0 mi Variable 5.8 mph - N/A   Mostly Cloudy
12:53 PM 75.0 °F 57.0 °F 53% 30.10 in 10.0 mi SSW 8.1 mph - N/A   Clear
1:53 PM 75.9 °F 57.9 °F 54% 30.08 in 10.0 mi Variable 5.8 mph - N/A   Clear
2:53 PM 77.0 °F 57.9 °F 52% 30.07 in 10.0 mi SSW 8.1 mph - N/A   Scattered Clouds
3:53 PM 78.1 °F 59.0 °F 52% 30.06 in 10.0 mi South 9.2 mph 17.3 mph N/A   Partly Cloudy
4:53 PM 79.0 °F 60.1 °F 52% 30.03 in 10.0 mi SSW 4.6 mph - N/A   Clear
5:53 PM 79.0 °F 59.0 °F 50% 30.02 in 10.0 mi SSW 5.8 mph - N/A   Clear
6:53 PM 75.9 °F 59.0 °F 56% 30.01 in 10.0 mi SSW 3.5 mph - N/A   Partly Cloudy
7:53 PM 75.9 °F 60.1 °F 58% 30.00 in 10.0 mi South 4.6 mph - N/A   Scattered Clouds
8:53 PM 71.1 °F 60.1 °F 68% 29.99 in 10.0 mi South 3.5 mph - N/A   Clear
9:53 PM 64.9 °F 60.1 °F 84% 30.00 in 10.0 mi Calm Calm - N/A   Partly Cloudy
10:53 PM 61.0 °F 57.9 °F 90% 30.01 in 10.0 mi Calm Calm - N/A   Clear
11:53 PM 60.1 °F 57.0 °F 90% 30.01 in 10.0 mi Calm Calm - N/A   Scattered Clouds